Location: Voyageurs National Park
(48.5020°N, 92.9292°W)
Time: 22:21:41
(UTC-05:00)

Cosmos-2242 - Pass Details

Date: 19 January 2018
Orbit: 590 x 619 km, 82.5° (Epoch: 20 May)

Event Time Altitude Azimuth Distance (km) Brightness Sun altitude
Rises 06:16:59 0° 200° (SSW) 2,853 6.4 -15.9°
Reaches altitude 10° 06:19:14 10° 205° (SSW) 1,949 5.5 -15.6°
Maximum altitude 06:23:27 54° 283° (WNW) 734 3.0 -14.9°
Drops below altitude 10° 06:27:41 10° 1° (N) 1,948 5.5 -14.2°
Sets 06:29:56 0° 6° (N) 2,851 6.4 -13.8°
